Location: Amsterdam
(30.7274°N, 84.4357°W)
Time: 00:23:42
(UTC+00:00)

Courier 1B Rocket - Pass Details

Date: 07 February 2026
Orbit: 920 x 1201 km, 28.2° (Epoch: 9 March)

Event Time Altitude Azimuth Distance (km) Brightness Sun altitude
Rises 03:45:25 0° 227° (SW) 3,736 - -57.3°
Reaches altitude 10° 03:48:17 10° 218° (SW) 2,831 - -57.8°
Maximum altitude 03:54:27 34° 156° (SSE) 1,695 - -59.1°
Drops below altitude 10° 04:01:01 10° 94° (E) 3,021 - -60.3°
Sets 04:04:10 0° 85° (E) 4,019 - -60.9°
